Location: NJAA Observatory
(40.6819°N, 74.8979°W)
Time: 17:55:38
(UTC-04:00)

Transit 2A Rocket - Visible Passes

Search period start: 07 July 2015 00:00
Search period end: 17 July 2015 00:00
Orbit: 589 x 917 km, 66.7° (Epoch: 06 July)

Date Brightness Start Highest point End Pass type
(mag) Time Alt. Az. Time Alt. Az. Time Alt. Az.
07 Jul 6.0 03:06:48 28° SSE 03:09:31 44° ESE 03:15:00 10° NE visible
07 Jul 6.3 04:46:58 10° WSW 04:52:21 32° NW 04:57:23 10° NNE visible
08 Jul 6.6 02:25:58 24° SE 02:27:31 27° ESE 02:32:22 10° NE visible
08 Jul 5.7 04:05:54 19° SW 04:10:01 50° NW 04:15:32 10° NNE visible
09 Jul 7.2 01:45:04 16° ESE 01:45:35 16° ESE 01:49:07 10° ENE visible
09 Jul 5.2 03:25:00 34° SW 03:27:47 80° WNW 03:33:32 10° NNE visible
10 Jul 5.4 02:44:03 46° S 02:45:40 64° ESE 02:51:21 10° NE visible
10 Jul 6.8 04:23:59 10° W 04:28:46 24° NW 04:33:14 10° N visible
11 Jul 6.0 02:03:04 37° SE 02:03:37 38° ESE 02:08:56 10° NE visible
11 Jul 6.2 03:43:00 21° WSW 03:46:21 36° NW 03:51:31 10° NNE visible
12 Jul 6.8 01:22:02 23° ESE 01:22:02 23° ESE 01:26:10 10° ENE visible
12 Jul 5.5 03:01:58 38° WSW 03:04:03 58° WNW 03:09:37 10° NNE visible
12 Jul 7.4 04:45:33 10° WNW 04:47:54 12° NW 04:49:58 10° NNW visible
13 Jul 7.4 00:40:58 13° E 00:40:58 13° E 00:42:32 10° ENE visible
13 Jul 5.1 02:20:53 65° SSW 02:21:51 89° SE 02:27:34 10° NNE visible
13 Jul 7.2 04:01:14 10° W 04:05:15 18° NW 04:08:56 10° N visible
14 Jul 5.5 01:39:47 55° ESE 01:39:47 55° ESE 01:45:19 10° NE visible
14 Jul 6.7 03:19:41 18° W 03:22:43 27° NW 03:27:23 10° N visible
15 Jul 6.3 00:58:36 32° E 00:58:36 32° E 01:02:49 10° NE visible
15 Jul 6.1 02:38:32 33° W 02:40:20 41° NW 02:45:37 10° NNE visible
16 Jul 7.0 00:17:24 18° E 00:17:24 18° E 00:19:53 10° ENE visible
16 Jul 5.3 01:57:19 60° W 01:58:04 66° WNW 02:03:40 10° NNE visible
16 Jul 7.5 03:38:53 10° WNW 03:41:46 14° NW 03:44:22 10° N visible
